[[{"header":{"parameterUnit":"m.s-1","parameterCategory":1,"la1":30.2991,"la2":30.254,"lo1":-89.0895,"lo2":-89.0444,"dy":0.0017,"dx":0.0017,"nx":28,"ny":28,"refTime":"2023-11-20T03:00:00:Z","depth":0,"parameterNumber":2,"parameterNumberName":"U-component_of_WINDS"},"data":[0,0,0,0,0,0,0,0,0,0,0,0,0,0,0,0,0,0,0,0,0,0,0,0,0,0,0,0,0,0,0,0,0,0,0,0,0,0,0,0,0,0,0,0,0,0,0,0,0,0,0,0,0,0,0,0,0,0,1.1992,1.1992,0,1.1982,1.1982,1.1982,1.1964,1.1964,1.1963,1.1963,1.1953,1.1954,1.1954,0,0,0,0,0,0,0,0,0,0,0,0,0,1.1998,1.1998,1.1992,1.1992,1.1992,1.1982,1.1982,1.1982,1.1964,1.1964,1.1963,1.1963,1.1953,1.1954,1.1954,0,0,0,0,0,0,0,0,0,0,0,0,0,1.1993,1.1998,1.1992,1.1982,1.1981,1.1982,1.1982,1.1982,1.1964,1.1964,1.1963,1.1963,1.1953,1.1953,1.1954,1.1964,0,0,1.1954,1.1954,0,0,0,0,0,0,0,0,1.1993,1.1993,1.1984,1.1983,1.1982,1.1974,1.1981,1.1976,1.1964,1.1971,1.1963,1.1963,1.1961,1.196,1.1959,1.1964,1.1963,1.1954,1.1954,1.1954,1.1954,0,0,0,0,0,0,0,1.1994,1.1993,1.1988,1.1984,1.1982,1.1979,1.1977,1.198,1.1969,1.197,1.1969,1.1968,1.196,1.1959,1.1959,1.1963,1.1954,1.1954,1.1954,1.1954,1.1977,1.1978,0,0,0,0,0,0,1.1995,1.1993,1.1989,1.1988,1.1986,1.1979,1.1977,1.1977,1.1969,1.1967,1.1968,1.1967,1.1959,1.1959,1.1959,1.1971,1.1954,1.1954,1.1954,1.1977,1.1978,1.1978,0,0,0,0,0,0,1.1995,1.1995,1.1989,1.199,1.1989,1.1979,1.1979,1.1977,1.1976,1.1967,1.1965,1.1969,1.1959,1.1958,1.1963,1.1971,1.1954,1.1954,1.1976,1.1977,1.1978,1.1996,0,0,0,0,0,0,1.1996,1.1995,1.1998,1.1991,1.1989,1.1993,1.1979,1.1977,1.1976,1.1975,1.1968,1.1966,1.1959,1.1963,1.1963,1.197,1.1954,1.1975,1.1977,1.1978,1.1995,1.1997,1.2,0,0,0,0,0,1.1996,1.2004,1.1999,1.1998,1.1993,1.1993,1.1993,1.1984,1.1977,1.198,1.1975,1.1966,1.197,1.1964,1.1964,1.1971,1.1975,1.1976,1.1978,1.1993,1.1997,1.1999,0,0,0,0,0,0,1.2012,1.2002,1.1997,1.2002,1.1999,1.199,1.1994,1.1987,1.1986,1.1985,1.1974,1.1973,1.1979,1.1976,1.1969,1.1982,1.1971,1.1973,1.1983,1.1986,1.1989,1.1989,1.1954,0,0,0,0,0,1.2017,1.2017,1.2009,1.2014,1.2013,1.2004,1.2004,1.1998,1.1994,1.1993,1.1987,1.1985,1.1985,1.1986,1.1986,1.1995,1.1993,1.2,1.2002,1.2004,1.2005,1.2011,1.2014,1.1982,1.1982,1.1982,0,0,1.2025,1.202,1.2021,1.2018,1.2014,1.2016,1.2003,1.2005,1.2007,1.1993,1.1997,1.1994,1.199,1.1997,1.2,1.1994,1.2014,1.2006,1.2008,1.2008,1.2013,1.2016,1.2018,1.1983,1.1983,1.1983,0,0,1.2042,1.2038,1.2042,1.204,1.2035,1.203,1.2031,1.2024,1.2021,1.2026,1.2016,1.2018,1.2019,1.2017,1.2016,1.2035,1.2027,1.2035,1.2048,1.2054,1.2056,1.2058,1.2065,1.2068,1.2037,1.2037,1.2037,0,1.2053,1.2055,1.2046,1.2049,1.2048,1.2036,1.2042,1.204,1.2035,1.2036,1.203,1.2032,1.2029,1.2036,1.204,1.204,1.2042,1.2035,1.2056,1.2058,1.206,1.2067,1.207,1.2038,1.2037,1.2037,1.2037,0,1.2069,1.2071,1.2075,1.2072,1.2072,1.2076,1.2068,1.2069,1.2064,1.2059,1.2065,1.2061,1.206,1.2062,1.2056,1.2069,1.2065,1.2058,1.2047,1.2064,1.2071,1.2073,1.2039,1.2039,1.2038,1.2038,0,0,1.2094,1.2087,1.2088,1.2087,1.2083,1.2084,1.2089,1.2088,1.209,1.2088,1.2092,1.2094,1.2088,1.2087,1.2082,1.2087,1.2103,1.2079,1.2079,1.2084,1.2118,1.2123,1.2126,1.2098,1.2099,1.2099,1.2118,0,1.2109,1.2115,1.2108,1.2117,1.2119,1.2109,1.2113,1.2111,1.2108,1.211,1.2106,1.2108,1.2099,1.2099,1.2104,1.21,1.2109,1.2098,1.2102,1.2103,1.2103,1.2129,1.2134,1.2152,1.212,1.2121,1.2121,0,1.2127,1.2127,1.2135,1.2131,1.2132,1.2136,1.2136,1.2137,1.2136,1.2133,1.2133,1.2127,1.2132,1.2123,1.213,1.2123,1.2125,1.2123,1.2124,1.2123,1.2112,1.2129,1.2157,1.216,1.2125,1.2124,1.2124,0,1.2145,1.2146,1.2152,1.2151,1.2147,1.215,1.2148,1.2146,1.2147,1.2148,1.2149,1.215,1.215,1.2152,1.2147,1.214,1.2156,1.2145,1.2154,1.2154,1.2157,1.2157,1.2186,1.2159,1.2159,1.2159,1.2158,0,1.2162,1.2168,1.216,1.2163,1.217,1.2163,1.2169,1.2167,1.2166,1.2169,1.2161,1.2165,1.2158,1.2161,1.2157,1.2165,1.2165,1.2164,1.2162,1.2164,1.2164,1.2164,1.2163,1.2159,1.2159,1.2159,1.2159,0,1.2182,1.2177,1.2182,1.2178,1.2178,1.2183,1.218,1.2183,1.218,1.2185,1.2186,1.2181,1.2184,1.218,1.2183,1.218,1.2191,1.2188,1.2191,1.219,1.2199,1.2199,1.2229,1.2233,1.2204,1.2204,1.2204,0,1.2193,1.2197,1.2194,1.2196,1.2195,1.2198,1.2199,1.2193,1.2195,1.2194,1.2198,1.2202,1.2203,1.221,1.2207,1.221,1.2207,1.2218,1.2208,1.221,1.2208,1.2207,1.2208,1.222,1.222,1.222,1.2221,0,1.2214,1.2211,1.2213,1.2215,1.2216,1.2217,1.2217,1.222,1.2213,1.2216,1.222,1.2221,1.2225,1.2229,1.2231,1.2231,1.2225,1.2224,1.2226,1.2228,1.223,1.2229,1.2197,1.2223,1.2223,1.2223,1.2223,1.2223,1.223,1.2233,1.2232,1.2235,1.2235,1.2236,1.2239,1.2237,1.224,1.2242,1.2239,1.2244,1.2244,1.2247,1.2248,1.2252,1.2248,1.2251,1.2252,1.2252,1.2254,1.223,1.2253,1.2253,1.2253,1.2252,1.2252,0,1.225,1.2249,1.2252,1.2253,1.2255,1.225,1.2251,1.2253,1.2258,1.2259,1.2261,1.2266,1.227,1.2269,1.2273,1.2277,1.2274,1.2278,1.2277,1.2278,1.2257,1.2255,1.228,1.228,1.228,1.228,1.228,1.228,1.2261,1.2267,1.2265,1.2272,1.2271,1.2276,1.2277,1.2278,1.2279,1.2285,1.2288,1.2287,1.2288,1.2292,1.2296,1.2295,1.2297,1.2302,1.23,1.2282,1.2279,1.2276,1.2274,1.2302,1.2302,1.232,1.232,1.232]},{"header":{"parameterUnit":"m.s-1","parameterCategory":1,"la1":30.2991,"la2":30.254,"lo1":-89.0895,"lo2":-89.0444,"dy":0.0017,"dx":0.0017,"nx":28,"ny":28,"refTime":"2023-11-20T03:00:00:Z","depth":0,"parameterNumber":3,"parameterNumberName":"V-component_of_WINDS"},"data":[0,0,0,0,0,0,0,0,0,0,0,0,0,0,0,0,0,0,0,0,0,0,0,0,0,0,0,0,0,0,0,0,0,0,0,0,0,0,0,0,0,0,0,0,0,0,0,0,0,0,0,0,0,0,0,0,0,0,-6.3891,-6.3892,0,-6.4058,-6.406,-6.4062,-6.403,-6.4027,-6.4024,-6.4021,-6.4189,-6.4196,-6.4203,0,0,0,0,0,0,0,0,0,0,0,0,0,-6.3541,-6.3548,-6.389,-6.3893,-6.3895,-6.4058,-6.406,-6.4062,-6.4031,-6.4027,-6.4023,-6.402,-6.4186,-6.4195,-6.4204,0,0,0,0,0,0,0,0,0,0,0,0,0,-6.3699,-6.355,-6.389,-6.3899,-6.3901,-6.4057,-6.406,-6.4063,-6.4031,-6.4027,-6.4022,-6.4018,-6.4184,-6.4194,-6.4205,-6.4362,0,0,-6.4238,-6.4243,0,0,0,0,0,0,0,0,-6.369,-6.3712,-6.3895,-6.3898,-6.3901,-6.4019,-6.3998,-6.4163,-6.4033,-6.3982,-6.4021,-6.4016,-6.4136,-6.415,-6.4191,-6.4369,-6.4377,-6.4239,-6.4246,-6.425,-6.4253,0,0,0,0,0,0,0,-6.3679,-6.3705,-6.3957,-6.3898,-6.3902,-6.3893,-6.3911,-6.4029,-6.4082,-6.3986,-6.3984,-6.4004,-6.4136,-6.4181,-6.4195,-6.4379,-6.4239,-6.4248,-6.4255,-6.4259,-6.4696,-6.4701,0,0,0,0,0,0,-6.3666,-6.3696,-6.3951,-6.3962,-6.3783,-6.3903,-6.3923,-6.3985,-6.408,-6.4091,-6.4008,-6.4002,-6.4164,-6.4182,-6.4201,-6.4392,-6.425,-6.426,-6.4267,-6.4691,-6.4697,-6.4703,0,0,0,0,0,0,-6.3659,-6.3689,-6.3944,-6.3828,-6.386,-6.3914,-6.3985,-6.3991,-6.4036,-6.4097,-6.4106,-6.4044,-6.4162,-6.4185,-6.4322,-6.4397,-6.4265,-6.4275,-6.4685,-6.4693,-6.47,-6.4774,0,0,0,0,0,0,-6.3649,-6.3687,-6.3747,-6.383,-6.3867,-6.4065,-6.3989,-6.3998,-6.4055,-6.4049,-6.4133,-6.4143,-6.416,-6.4306,-6.4333,-6.4409,-6.4284,-6.4678,-6.4688,-6.4697,-6.4765,-6.4783,-6.4799,0,0,0,0,0,-6.3636,-6.376,-6.375,-6.3781,-6.3944,-6.4069,-6.409,-6.4108,-6.4061,-6.4122,-6.4162,-6.414,-6.4385,-6.4321,-6.4351,-6.4431,-6.4674,-6.4686,-6.4697,-6.4758,-6.478,-6.4798,0,0,0,0,0,0,-6.3683,-6.3771,-6.3761,-6.3916,-6.3985,-6.4063,-6.4141,-6.413,-6.4213,-6.4204,-6.4222,-6.4241,-6.4381,-6.442,-6.4347,-6.4589,-6.4522,-6.454,-6.4559,-6.458,-6.4597,-6.4584,-6.4293,0,0,0,0,0,-6.3711,-6.3807,-6.3878,-6.4008,-6.4043,-6.4086,-6.4141,-6.415,-6.4222,-6.4251,-6.43,-6.437,-6.4463,-6.4524,-6.4612,-6.4771,-6.4789,-6.4841,-6.4858,-6.4871,-6.4887,-6.4975,-6.4999,-6.474,-6.474,-6.474,0,0,-6.377,-6.3831,-6.3889,-6.4019,-6.4073,-6.4171,-6.4111,-6.4217,-6.429,-6.4266,-6.44,-6.4439,-6.4518,-6.4667,-6.4735,-6.4704,-6.4962,-6.4886,-6.4896,-6.4904,-6.4989,-6.5013,-6.5035,-6.4748,-6.4747,-6.4745,0,0,-6.3929,-6.3984,-6.4098,-6.4155,-6.424,-6.4268,-6.4296,-6.4377,-6.4402,-6.4537,-6.4522,-6.4608,-6.4767,-6.4825,-6.4875,-6.5058,-6.5041,-6.5086,-6.5173,-6.5259,-6.5279,-6.5298,-6.5364,-6.5387,-6.5101,-6.5101,-6.5101,0,-6.3991,-6.4139,-6.4158,-6.4267,-6.4324,-6.431,-6.4426,-6.448,-6.4588,-6.4628,-6.4592,-6.4792,-6.4844,-6.5008,-6.5053,-6.5093,-6.5125,-6.5076,-6.5275,-6.5294,-6.5311,-6.5374,-6.5399,-6.5106,-6.5105,-6.5105,-6.5104,0,-6.4213,-6.4316,-6.4398,-6.4506,-6.4573,-6.4684,-6.4719,-6.4785,-6.4788,-6.482,-6.4957,-6.502,-6.5122,-6.5161,-6.5164,-6.5325,-6.5303,-6.5271,-6.5204,-6.534,-6.54,-6.5424,-6.5113,-6.5111,-6.511,-6.5109,0,0,-6.4403,-6.4522,-6.4552,-6.4602,-6.4695,-6.4775,-6.4886,-6.4987,-6.5043,-6.5119,-6.5213,-6.5349,-6.532,-6.5377,-6.5387,-6.5462,-6.5604,-6.5421,-6.5423,-6.5453,-6.5787,-6.5811,-6.5839,-6.5594,-6.5599,-6.5602,-6.5781,0,-6.4571,-6.4769,-6.479,-6.4967,-6.5063,-6.5051,-6.5148,-6.5216,-6.5249,-6.5335,-6.5371,-6.5467,-6.5422,-6.5457,-6.5531,-6.5571,-6.5671,-6.5559,-6.5681,-6.5685,-6.5662,-6.587,-6.5895,-6.606,-6.5804,-6.5808,-6.5811,0,-6.4793,-6.4877,-6.5064,-6.5146,-6.5187,-6.5274,-6.537,-6.5452,-6.5528,-6.5547,-6.5613,-6.5613,-6.5727,-6.5657,-6.5815,-6.5738,-6.5789,-6.5817,-6.5824,-6.5836,-6.5756,-6.5888,-6.6113,-6.6138,-6.5847,-6.5845,-6.5842,0,-6.4914,-6.5075,-6.5208,-6.525,-6.5349,-6.5411,-6.5455,-6.5527,-6.5587,-6.567,-6.571,-6.5804,-6.5856,-6.5929,-6.5955,-6.5901,-6.6113,-6.6044,-6.6131,-6.6131,-6.6176,-6.6173,-6.6413,-6.6209,-6.6208,-6.6208,-6.6207,0,-6.5099,-6.5214,-6.5264,-6.5346,-6.5475,-6.5498,-6.5624,-6.5665,-6.573,-6.5819,-6.5814,-6.5898,-6.5927,-6.6015,-6.6036,-6.6164,-6.6187,-6.6205,-6.621,-6.6206,-6.6204,-6.624,-6.6229,-6.6214,-6.6213,-6.6212,-6.6211,0,-6.5256,-6.5295,-6.5439,-6.5522,-6.5545,-6.5637,-6.5707,-6.5786,-6.5819,-6.5932,-6.5959,-6.6011,-6.6115,-6.6148,-6.6273,-6.6287,-6.6437,-6.6431,-6.6412,-6.6412,-6.6498,-6.649,-6.6771,-6.6809,-6.6579,-6.6581,-6.6583,0,-6.5372,-6.5461,-6.5554,-6.5614,-6.5661,-6.5758,-6.582,-6.5847,-6.5911,-6.6007,-6.6074,-6.6178,-6.6262,-6.6429,-6.6477,-6.6572,-6.6569,-6.666,-6.6583,-6.6577,-6.6571,-6.6566,-6.6575,-6.6675,-6.6677,-6.6679,-6.6681,0,-6.5574,-6.5589,-6.5679,-6.5778,-6.5853,-6.5931,-6.6006,-6.6055,-6.6093,-6.6166,-6.6274,-6.6339,-6.6468,-6.6571,-6.6669,-6.6713,-6.6704,-6.6705,-6.6731,-6.6728,-6.6714,-6.6724,-6.6452,-6.6698,-6.6697,-6.6695,-6.6694,-6.6694,-6.5714,-6.5793,-6.5872,-6.5974,-6.6034,-6.6105,-6.6184,-6.6227,-6.6318,-6.6426,-6.6436,-6.6552,-6.6628,-6.6759,-6.6808,-6.6899,-6.6873,-6.6909,-6.6919,-6.6928,-6.6935,-6.67,-6.6917,-6.6916,-6.6916,-6.6916,-6.6915,0,-6.5916,-6.5967,-6.6061,-6.6167,-6.6248,-6.6234,-6.6317,-6.6384,-6.6487,-6.6559,-6.6643,-6.6768,-6.6868,-6.6924,-6.7025,-6.7087,-6.7085,-6.7112,-6.7108,-6.7118,-6.6952,-6.6921,-6.7112,-6.7112,-6.7112,-6.7112,-6.7112,-6.7112,-6.6031,-6.6164,-6.6189,-6.6353,-6.6402,-6.6517,-6.6566,-6.6632,-6.669,-6.6829,-6.6914,-6.6951,-6.7017,-6.7122,-6.7214,-6.7228,-6.7265,-6.7295,-6.7306,-6.715,-6.713,-6.7111,-6.7081,-6.7303,-6.7303,-6.7465,-6.7467,-6.7468]}]]